DW5714 Weather Reports


time (UTC)temp
F
wind
direction
speed
knots
gust
knots
rain 1hr
in
rain 24hr
in
rain mn
in
humidity
%
barometer
mb
20260504231546 64 165 1.7 3.5 0.00 0.00 0.00 46 1008.9
20260504230101 65 212 0.0 7.8 0.00 0.00 0.00 43 1008.9
20260504224545 65 196 1.7 7.0 0.00 0.00 0.00 42 1008.7
20260504223043 66 159 0.0 9.6 0.00 0.00 0.00 43 1008.7
20260504221554 66 169 2.6 7.8 0.00 0.00 0.00 41 1008.7
20260504220041 67 148 2.6 7.8 0.00 0.00 0.00 40 1008.8
20260504214541 67 144 3.5 7.8 0.00 0.00 0.00 38 1008.7
20260504213044 67 168 1.7 8.7 0.00 0.00 0.00 38 1009.0
20260504211544 66 130 1.7 9.6 0.00 0.00 0.00 39 1009.0
20260504210037 66 139 2.6 9.6 0.00 0.00 0.00 39 1009.2
20260504204539 67 279 0.9 8.7 0.00 0.00 0.00 39 1009.3
20260504203034 66 240 0.9 7.8 0.00 0.00 0.00 39 1009.5
20260504201533 66 208 0.0 9.6 0.00 0.00 0.00 40 1009.6
20260504200032 67 219 1.7 10.4 0.00 0.00 0.00 39 1010.0
20260504194531 67 155 3.5 12.2 0.00 0.00 0.00 39 1010.0
20260504193030 66 144 1.7 12.2 0.00 0.00 0.00 39 1010.1
20260504191528 67 146 2.6 10.4 0.00 0.00 0.00 39 1010.3
20260504190027 67 355 4.3 18.2 0.00 0.00 0.00 41 1010.4
20260504184525 68 217 1.7 11.3 0.00 0.00 0.00 39 1010.5
20260504183024 67 200 3.5 13.9 0.00 0.00 0.00 40 1010.5
20260504181527 67 277 3.5 13.0 0.00 0.00 0.00 40 1010.8
20260504180020 65 238 4.3 12.2 0.00 0.00 0.00 43 1010.7
20260504174519 65 169 3.5 12.2 0.00 0.00 0.00 41 1010.8
20260504173018 65 153 6.1 11.3 0.00 0.00 0.00 42 1011.0
20260504171516 65 296 5.2 10.4 0.00 0.00 0.00 42 1011.2
20260504081556 40 138 0.0 2.6 0.00 0.00 0.00 79 1014.2
20260504044535 41 338 0.0 1.7 0.00 0.00 0.00 74 1014.2
20260504043030 41 336 0.0 0.0 0.00 0.00 0.00 72 1014.3
20260504041527 42 336 0.0 0.0 0.00 0.00 0.00 73 1014.3
20260504040024 42 336 0.0 0.0 0.00 0.00 0.00 71 1014.4
20260504034524 43 336 0.0 0.0 0.00 0.00 0.00 71 1014.4
20260504033024 43 336 0.0 0.0 0.00 0.00 0.00 71 1014.4
20260504031525 42 336 0.0 0.0 0.00 0.00 0.00 72 1014.4
20260504030022 42 336 0.0 0.0 0.00 0.00 0.00 72 1014.4
20260504024522 42 336 0.0 0.0 0.00 0.00 0.00 71 1014.5
20260504023022 42 336 0.0 0.0 0.00 0.00 0.00 67 1014.6
20260504021522 43 336 0.0 0.0 0.00 0.00 0.00 65 1014.6
20260504020020 43 336 0.0 0.0 0.00 0.00 0.00 64 1014.5
20260504014520 45 336 0.0 0.9 0.00 0.00 0.00 63 1014.4
20260504013026 44 336 0.0 1.7 0.00 0.00 0.00 66 1014.1
20260504011520 45 336 0.0 0.0 0.00 0.00 0.00 64 1014.1
20260504010018 46 336 0.0 1.7 0.00 0.00 0.00 63 1013.9
20260504004518 45 336 0.0 0.0 0.00 0.00 0.00 68 1013.8
20260504003017 45 336 0.0 0.9 0.00 0.00 0.00 65 1013.7
20260504001517 45 336 0.0 0.0 0.00 0.00 0.00 61 1013.5
20260504000045 47 336 0.0 0.0 0.00 0.00 0.00 60 1013.4
20260503234516 48 336 0.0 0.0 0.00 0.00 0.00 58 1013.5
20260503233016 49 336 0.0 0.0 0.00 0.00 0.00 54 1013.4